Wind_Speed
118 120 121 122 123 124 126 127 127 128 129 129 130 130 131 131 132 132 133 133 133 134 133 133 132 132 131 131 130 130 129 128 127 126 125 123 121 118 115 111 108 105 103 101 99 97 94 92 90 88 86 84 81 79 77 74 72 69 67 65 63 61 58 56 54 53 51 49 48 47 45 44 43 41 40 39 38 37 36 36 35 34 34 33 32 31
120 122 123 124 125 126 127 128 129 129 130 130 131 131 132 132 133 134 134 134 134 134 134 133 132 132 132 131 131 130 129 128 127 126 124 122 119 116 113 109 106 104 102 99 97 95 93 91 89 87 84 82 80 77 75 72 69 67 65 63 61 58 56 54 52 50 49 47 46 45 43 42 41 40 39 38 37 36 35 35 34 33 33 32 31 31
122 123 125 126 127 127 128 129 130 131 131 132 132 133 133 134 135 135 135 135 135 134 134 133 133 133 132 132 131 130 129 128 127 125 123 121 117 114 110 107 105 102 100 98 96 94 92 90 87 85 83 80 78 75 72 70 67 65 62 60 58 56 54 52 50 48 47 45 44 43 42 41 39 38 37 36 36 35 35 34 33 33 32 31 30 30
124 125 126 127 128 129 130 130 131 132 133 133 134 135 135 136 136 136 136 136 135 135 134 134 133 133 133 132 131 130 129 127 126 124 122 118 115 112 109 106 103 101 99 97 95 93 91 88 86 83 80 78 75 72 70 67 64 62 60 58 56 54 52 50 48 46 45 43 42 41 40 39 38 37 36 35 35 34 34 33 32 32 31 30 30 29
126 127 128 129 130 131 132 132 133 134 134 135 136 136 137 137 137 137 137 136 135 135 135 134 134 134 133 132 131 129 128 127 125 123 119 116 113 110 107 104 102 100 98 96 93 91 89 86 83 81 78 75 72 69 67 64 61 59 57 55 53 51 49 47 46 44 43 41 40 39 38 37 36 36 35 34 34 33 33 32 32 31 30 30 29 28
128 129 130 130 131 132 133 134 135 135 136 137 138 138 138 138 138 138 137 136 136 135 135 135 135 134 133 132 130 129 128 126 123 120 117 114 111 108 105 103 100 98 96 94 92 89 87 84 81 78 75 72 69 66 64 61 59 57 54 52 50 48 47 45 43 42 41 40 39 38 37 36 35 34 34 33 33 32 32 31 31 30 29 29 28 28
130 131 132 132 133 134 135 136 136 137 138 138 139 140 140 139 139 138 137 136 136 136 136 136 135 134 133 131 130 129 127 124 121 118 115 112 109 106 103 101 99 96 94 92 89 87 84 81 78 75 72 69 66 63 60 58 56 54 52 50 48 46 44 43 41 40 39 38 37 36 35 35 34 33 33 33 32 32 31 31 30 29 29 28 28 27
132 133 134 135 136 136 137 138 138 139 139 140 140 141 141 140 139 138 137 137 137 136 136 136 135 134 132 131 130 128 125 123 119 116 112 110 107 104 102 99 97 94 92 89 87 84 81 78 75 72 69 66 63 60 57 55 53 51 49 47 45 44 42 41 40 38 37 36 35 35 34 33 33 33 32 32 32 31 31 30 29 29 28 28 27 27
134 135 136 137 138 138 139 140 140 140 141 141 141 141 141 140 139 138 138 137 137 137 136 136 135 133 132 130 129 126 124 120 117 113 110 108 105 102 100 97 95 92 90 87 84 81 78 75 72 69 66 63 60 57 54 52 50 48 46 45 43 42 40 39 38 37 36 35 34 33 33 32 32 32 32 31 31 31 30 29 29 28 28 27 27 26
137 137 138 139 140 140 141 142 142 142 142 142 141 141 140 140 139 139 139 138 138 137 136 135 134 133 132 130 127 125 121 118 114 111 108 106 103 101 98 95 93 90 87 84 81 78 74 71 68 65 62 59 57 54 51 49 47 46 44 42 41 39 38 37 36 35 34 34 33 32 32 32 31 31 31 31 30 30 30 29 28 28 27 27 26 26
139 140 140 141 142 142 143 143 143 143 143 142 142 141 140 139 139 139 140 140 139 138 136 135 134 133 131 129 126 122 119 115 112 109 106 104 101 99 96 93 90 87 84 81 77 74 71 68 65 62 59 56 53 51 49 46 45 43 42 40 39 38 36 35 35 34 33 32 32 31 31 31 31 31 30 30 30 30 29 28 28 27 27 26 26 26
141 142 142 143 143 144 144 144 144 143 143 143 142 141 141 140 139 139 140 140 139 138 136 135 134 132 130 127 124 120 116 113 110 107 104 102 99 96 93 90 87 84 81 77 74 70 67 64 61 58 56 53 50 48 46 44 43 41 40 39 37 36 35 34 33 33 32 32 31 31 30 30 30 30 30 30 30 29 29 28 28 27 27 26 26 25
143 144 144 145 145 145 145 145 145 144 144 143 143 142 141 141 140 140 140 139 138 137 136 135 133 131 128 124 121 117 114 111 108 105 102 99 97 93 90 87 84 80 77 73 70 67 64 60 58 55 52 50 48 45 43 42 40 39 38 37 36 34 34 33 32 32 31 31 30 30 30 30 30 30 30 30 29 29 28 28 27 27 26 26 26 25
145 145 146 146 146 146 146 146 145 145 144 143 142 142 141 141 140 140 139 139 138 136 135 134 132 130 126 122 118 114 111 108 105 103 100 97 94 90 87 83 80 77 73 70 66 63 60 57 55 52 50 47 45 43 41 40 39 38 37 35 34 33 32 32 31 31 30 30 30 30 29 29 29 29 29 29 29 29 28 28 27 27 26 26 25 25
146 147 147 147 147 147 146 146 145 145 144 143 142 141 141 141 140 140 139 138 137 136 135 133 131 127 123 119 115 111 108 106 103 100 97 94 91 87 83 80 76 73 69 66 63 60 57 54 52 50 47 45 43 41 39 38 37 36 35 34 33 32 31 31 30 30 30 30 29 29 29 29 29 29 29 29 29 28 28 27 27 26 26 26 25 25
147 148 148 148 148 147 146 146 145 144 143 143 142 142 141 141 140 139 138 137 136 135 134 132 129 125 121 116 112 109 106 103 100 97 94 91 88 84 80 76 72 69 66 63 60 57 54 52 49 47 45 43 41 39 38 37 36 35 34 33 32 31 31 30 30 30 30 29 29 29 29 29 29 29 29 29 28 28 28 27 27 26 26 26 25 25
148 148 148 148 148 147 146 145 145 144 143 143 142 142 141 140 140 139 137 136 135 134 132 129 126 122 118 114 110 107 103 100 97 94 91 87 84 80 76 72 68 65 63 60 57 54 52 49 47 45 43 41 39 38 36 35 34 34 33 32 31 31 30 30 30 30 29 29 29 29 29 29 29 29 29 29 28 28 27 27 26 26 26 25 25 25
149 149 149 148 148 147 146 145 144 144 143 143 142 141 141 140 139 138 136 135 134 132 129 126 122 118 115 111 108 104 101 97 94 91 87 83 80 76 72 68 65 62 60 57 54 52 49 47 45 43 41 40 38 37 35 34 33 33 32 31 31 30 30 30 30 29 29 29 29 29 29 29 29 29 29 28 28 28 27 27 26 26 26 25 25 25
149 149 149 148 147 147 146 145 144 143 143 142 142 141 140 139 138 137 135 134 132 129 126 122 119 115 111 108 105 101 98 94 91 87 83 79 75 72 68 65 62 59 57 54 52 50 47 45 43 41 40 38 37 36 34 33 32 32 31 31 30 30 30 30 30 29 29 29 29 29 29 29 29 29 29 28 28 27 27 26 26 26 26 25 25 25
149 149 148 147 146 146 145 144 144 143 142 142 141 140 139 138 137 136 134 132 129 125 122 118 115 111 108 105 101 98 95 91 87 83 79 75 71 68 65 62 59 57 55 52 50 47 45 43 42 40 38 37 36 35 34 33 32 31 31 30 30 30 30 30 30 30 30 29 29 29 29 29 29 29 29 28 28 27 27 26 26 26 26 25 25 25
149 148 147 146 146 145 145 144 143 142 142 141 140 140 139 137 136 134 132 129 125 122 118 114 111 108 104 101 98 95 91 87 82 78 75 71 68 65 62 59 57 55 52 50 48 46 43 42 40 38 37 36 35 34 33 32 31 31 30 30 30 30 30 30 30 30 30 30 30 29 29 29 29 29 28 28 28 27 27 26 26 26 26 25 25 25
148 147 146 146 145 144 144 143 143 142 141 140 139 139 138 136 134 132 129 125 121 118 114 110 107 104 101 98 94 91 87 83 78 74 71 67 65 62 59 57 54 52 50 48 46 44 42 40 39 37 36 35 34 33 33 32 31 31 30 30 30 30 30 30 30 30 30 30 30 30 30 30 29 29 28 28 28 27 27 26 26 26 26 26 25 25
147 146 146 145 144 144 143 143 142 141 140 139 138 137 136 134 132 129 125 121 117 113 110 107 104 101 98 94 91 87 83 78 74 70 67 64 62 59 57 55 52 51 49 47 45 43 41 39 38 36 35 35 34 33 32 31 31 31 30 30 31 31 31 31 31 31 31 30 30 30 30 30 29 29 29 28 28 27 27 26 26 26 26 26 26 26
146 146 145 145 144 144 143 142 142 141 140 139 137 136 134 131 128 125 121 117 113 109 106 103 101 98 95 91 87 83 79 74 70 66 64 61 59 57 55 53 51 49 47 45 43 41 40 38 37 36 35 34 33 33 32 32 31 31 31 31 31 31 31 31 31 31 31 31 31 31 30 30 30 29 29 28 28 27 27 27 26 26 26 26 26 26
146 145 145 145 144 144 143 142 141 140 139 137 136 134 131 128 125 121 117 113 109 106 103 100 97 94 91 87 83 78 74 70 66 63 61 59 57 55 53 51 49 48 46 44 42 40 39 37 36 35 34 34 33 33 32 32 32 32 32 32 32 32 32 32 32 32 32 31 31 31 31 31 30 30 29 28 28 27 27 27 26 26 26 26 26 26
146 145 145 145 144 143 142 141 140 139 138 136 133 131 128 124 120 117 113 109 106 102 99 96 94 91 87 83 79 74 70 66 63 60 58 57 55 54 52 50 48 46 45 43 41 40 38 37 36 35 34 34 33 33 32 32 32 32 32 33 33 33 33 33 32 32 32 32 32 32 31 31 31 30 29 29 28 28 27 27 27 26 26 26 26 26
146 146 145 145 144 143 142 141 139 138 136 133 130 127 124 120 116 113 109 106 102 99 96 93 90 87 83 79 74 70 66 63 60 58 56 55 53 52 51 49 47 45 44 42 41 39 38 37 36 35 34 34 33 33 33 33 33 33 33 33 33 33 33 33 33 33 33 33 32 32 32 32 31 31 30 29 29 28 28 27 27 27 26 26 26 26
146 145 145 144 144 143 141 140 138 136 133 130 127 123 119 115 112 108 105 102 99 96 92 89 86 82 78 74 70 67 63 60 57 55 54 53 52 51 49 48 46 45 43 42 40 39 37 36 36 35 34 34 34 34 34 34 34 34 34 34 34 34 34 34 34 33 33 33 33 33 32 32 32 31 31 30 30 29 28 28 28 27 27 27 27 27
146 145 145 144 143 142 140 138 136 133 129 126 122 118 115 111 107 104 102 99 96 92 89 85 82 78 74 70 67 64 61 58 56 53 52 51 50 50 48 47 45 44 43 41 40 39 38 37 36 35 35 35 35 35 35 35 35 35 35 35 35 35 35 35 34 34 34 34 34 33 33 33 32 32 31 31 30 30 29 29 28 28 27 27 27 27
145 145 144 143 142 140 138 136 133 129 125 122 118 114 110 107 103 101 98 95 92 88 85 81 78 74 70 67 64 62 59 57 54 52 50 49 49 48 47 46 45 44 42 41 40 39 38 37 36 36 36 36 35 36 36 36 36 36 36 36 36 36 36 35 35 35 35 35 34 34 34 34 33 33 32 32 31 31 30 30 29 29 28 28 27 27
145 144 143 142 140 138 135 132 129 125 121 117 113 109 106 103 100 97 94 91 88 84 81 77 73 70 67 64 62 60 58 56 53 51 49 48 47 47 46 45 44 43 42 41 40 40 39 38 37 37 36 36 36 36 36 36 37 37 37 37 37 37 36 36 36 36 36 35 35 35 35 34 34 34 33 33 32 32 31 31 30 29 29 28 28 28
144 142 141 139 137 134 131 128 124 120 117 113 109 105 102 99 96 93 91 87 84 80 77 73 70 67 64 62 60 58 56 54 52 50 48 47 46 46 45 44 44 43 42 41 41 40 39 39 38 37 37 37 37 37 37 37 38 38 38 38 38 38 37 37 37 37 36 36 36 36 36 35 35 35 34 34 33 33 32 32 31 30 30 29 29 29
142 140 138 136 133 130 126 123 119 116 112 108 105 101 98 96 93 90 87 83 80 76 73 69 67 64 62 60 58 57 55 53 51 49 47 46 45 44 44 43 43 43 42 41 41 40 40 40 39 39 38 38 38 38 38 38 38 39 39 39 39 38 38 38 37 37 37 37 37 37 36 36 36 36 35 35 35 34 34 33 32 32 31 30 30 30
139 137 134 131 128 125 121 118 115 111 108 104 101 98 95 92 89 86 83 79 76 73 69 66 64 62 61 59 58 56 54 52 50 48 46 45 44 43 43 43 42 42 42 42 41 41 40 40 40 39 39 39 39 39 39 39 39 39 40 40 39 39 39 39 38 38 38 38 38 38 37 37 37 37 36 36 36 35 35 34 34 33 32 32 31 31
136 133 130 127 123 120 116 113 110 107 104 101 98 95 92 88 85 82 79 75 72 69 67 64 62 61 59 58 57 55 53 52 50 48 46 45 44 43 42 42 42 42 41 41 41 40 40 40 40 40 40 40 40 40 40 40 40 40 41 41 40 40 40 40 39 39 39 39 38 38 38 38 38 38 38 37 37 37 36 36 35 34 34 33 32 32
131 128 125 122 118 115 112 108 106 103 100 98 95 92 88 85 81 78 75 72 69 67 65 63 61 59 58 57 56 54 53 51 49 47 46 44 43 42 41 41 41 41 41 41 41 40 40 40 40 40 40 41 41 41 41 41 41 41 42 42 41 41 41 41 40 40 40 40 39 39 39 39 39 39 39 38 38 38 38 37 36 36 35 34 34 33
126 123 120 116 113 110 107 104 102 99 97 94 91 88 84 81 77 74 72 69 67 65 63 62 60 59 57 56 55 54 52 51 49 47 46 45 43 42 41 41 41 40 40 41 41 40 40 40 40 40 40 41 41 42 42 42 42 43 43 43 43 42 42 42 41 41 41 41 40 40 40 40 40 40 40 40 39 39 39 38 38 37 36 36 35 35
120 118 115 112 109 106 103 101 98 96 93 90 87 84 81 77 74 71 69 67 65 64 62 61 60 58 57 56 55 54 52 51 49 48 46 45 44 42 42 41 40 40 40 40 40 40 40 40 40 40 41 41 42 42 43 43 44 44 44 44 44 43 43 43 42 42 42 42 42 41 41 41 41 41 41 41 41 40 40 40 39 39 38 37 37 36
115 112 110 107 105 102 100 97 95 92 89 86 83 80 77 75 72 69 67 65 64 62 61 60 59 58 57 56 55 53 52 51 49 48 46 45 44 43 42 41 41 40 40 40 40 41 41 41 41 41 41 41 42 43 43 44 44 45 45 45 45 44 44 44 43 43 43 43 43 42 42 42 42 42 42 42 42 42 42 41 41 40 39 39 38 38
110 108 105 103 101 99 96 94 91 88 85 82 79 77 74 72 70 68 66 64 63 61 60 60 59 58 57 56 55 53 52 51 50 48 47 46 44 44 43 42 41 41 40 40 41 41 41 42 42 41 41 42 42 43 44 44 45 45 46 46 46 45 45 45 44 44 44 44 44 44 44 44 43 43 43 43 43 43 43 42 42 41 40 40 39 39
105 103 102 100 98 95 93 90 87 84 81 78 76 74 72 70 68 67 65 64 62 61 60 59 58 57 57 56 54 53 52 51 50 49 47 46 45 44 43 42 42 41 41 41 41 41 41 42 42 42 42 42 43 43 44 45 45 46 46 46 47 46 46 46 45 45 45 45 45 45 45 45 45 45 45 45 45 44 44 44 43 42 42 41 41 41
102 100 98 96 94 91 89 86 83 81 78 75 73 71 70 68 67 66 65 64 63 62 60 59 58 57 56 56 55 54 52 51 50 49 48 47 46 45 44 43 42 42 41 41 41 41 42 42 43 43 43 43 43 43 44 44 45 45 46 46 47 47 47 46 46 46 46 46 46 46 46 46 46 46 46 46 46 46 45 45 44 44 43 42 42 42
98 96 94 92 90 87 85 82 80 78 75 73 71 69 68 67 66 65 65 64 63 62 61 59 58 57 56 55 54 54 53 52 51 50 49 48 47 45 45 44 43 42 42 42 42 42 42 42 43 43 43 43 43 44 44 44 45 45 46 46 47 47 47 48 47 47 47 47 48 48 48 48 48 48 48 47 47 47 46 46 45 45 44 44 43 43
94 92 90 88 85 83 81 79 77 75 73 72 70 69 68 66 66 65 64 64 63 63 61 60 59 58 56 55 54 54 53 52 51 50 49 48 47 46 45 44 44 43 42 42 42 42 42 43 43 43 43 43 44 44 44 44 45 45 46 46 47 47 48 48 48 48 48 49 49 49 49 49 49 49 49 49 48 48 47 47 46 46 45 45 45 45
90 88 86 84 82 80 78 76 75 74 72 71 70 69 68 66 66 65 64 64 63 63 62 61 60 59 57 56 55 54 53 52 51 51 50 49 48 47 46 45 45 44 43 43 43 42 42 43 43 43 44 44 44 45 45 45 45 45 45 46 47 47 48 49 49 49 49 50 50 50 50 50 50 50 50 50 49 49 49 48 48 47 47 46 46 46
85 83 82 80 78 77 76 74 73 72 72 71 70 69 68 67 66 65 64 64 63 62 62 61 60 59 59 57 56 55 54 53 52 51 50 50 49 48 47 46 46 45 44 44 43 43 43 43 43 44 44 45 45 45 45 45 45 45 46 46 47 48 49 49 50 50 50 51 51 51 51 51 51 51 51 51 50 50 50 49 49 48 48 47 47 47
81 80 78 77 76 75 74 73 72 72 71 71 70 69 69 67 67 66 65 64 63 62 62 61 60 60 59 58 57 56 55 54 53 52 51 50 50 49 48 48 47 46 45 45 44 44 43 43 43 44 44 45 46 46 46 46 46 46 46 47 48 48 49 50 50 51 51 52 52 52 52 52 52 52 52 52 52 51 51 50 50 49 49 49 48 48
78 77 76 75 74 73 73 72 72 71 71 71 70 70 69 68 67 66 65 64 63 62 62 61 61 60 60 59 58 57 56 55 54 53 52 51 51 50 49 49 48 47 47 46 45 45 45 44 44 44 45 45 46 47 47 47 47 47 47 48 48 49 50 51 51 52 52 53 53 53 53 53 53 53 53 53 53 53 52 51 51 50 50 50 50 50
76 75 74 73 72 72 72 71 71 71 70 70 70 69 69 68 67 66 65 64 63 63 62 61 61 60 60 59 58 58 57 56 56 55 54 53 52 51 51 50 49 49 48 48 47 46 46 46 45 45 45 46 46 47 48 48 48 48 48 49 50 50 51 52 52 53 53 54 54 54 54 55 55 55 55 54 54 54 53 53 52 51 51 51 51 51
74 73 73 72 72 71 71 70 70 70 70 69 69 69 68 67 67 66 65 64 63 63 62 61 61 60 60 59 58 58 57 57 57 56 55 54 53 53 52 52 51 51 50 50 49 48 48 47 47 47 46 46 47 47 48 48 49 49 50 50 51 52 52 53 53 53 54 55 55 55 56 56 56 56 56 56 56 55 54 54 53 52 52 52 52 52
73 72 72 71 71 71 70 70 69 69 69 68 68 67 67 67 66 65 65 64 63 63 62 61 61 60 60 59 58 58 57 57 57 57 56 56 55 54 54 53 53 52 52 52 51 51 50 49 49 48 48 48 47 47 48 49 49 50 51 52 52 53 53 54 54 55 55 56 56 57 57 57 57 57 57 57 57 56 55 55 54 53 53 52 53 53
Wind_Direction
301 302 302 303 304 304 305 305 306 307 307 308 308 309 309 310 311 311 312 312 312 313 313 313 314 314 315 315 315 315 316 316 316 316 317 317 317 317 317 317 317 316 316 315 315 314 313 312 311 310 309 308 307 306 305 305 304 303 302 301 300 299 298 297 296 295 294 293 292 291 290 290 289 288 288 287 287 286 286 286 285 285 285 285 285 285
301 301 302 303 303 304 305 305 306 307 307 308 308 309 309 310 310 311 311 312 312 312 313 313 314 314 314 315 315 315 316 316 316 316 317 317 317 317 317 316 316 316 315 314 314 313 312 311 310 309 308 307 306 305 304 303 303 301 300 299 298 298 297 296 295 294 293 292 290 290 289 288 288 287 286 286 285 285 284 284 284 284 284 284 284 284
301 301 302 303 303 304 305 305 306 307 307 308 308 309 309 310 310 310 311 311 312 312 312 313 313 314 314 314 315 315 315 316 316 316 316 316 316 316 316 316 316 315 314 314 313 312 311 310 309 308 307 306 305 304 303 302 301 300 299 298 297 296 296 294 293 292 291 290 289 288 287 286 286 285 285 284 284 283 283 283 283 283 283 283 283 282
301 301 302 303 303 304 305 305 306 306 307 307 308 308 309 309 310 310 310 311 311 312 312 313 313 314 314 314 315 315 315 316 316 316 316 316 316 316 316 315 315 314 314 313 312 311 310 309 308 307 306 305 304 303 302 301 300 299 298 297 296 295 294 293 292 290 289 288 287 286 285 285 284 283 283 282 282 281 281 281 281 282 282 282 282 281
301 301 302 303 303 304 305 305 306 306 307 307 308 308 308 309 309 310 310 311 311 312 312 313 313 313 314 314 314 315 315 315 316 316 316 316 316 316 315 315 314 313 313 312 311 310 309 308 307 306 305 304 303 302 301 300 299 298 297 296 295 294 292 291 290 289 287 286 285 284 283 283 282 281 281 280 280 280 280 280 280 280 280 280 280 280
301 301 302 303 303 304 305 305 306 306 307 307 307 308 308 309 309 309 310 310 311 311 312 312 313 313 314 314 314 315 315 315 315 316 316 316 315 315 315 314 313 313 312 311 310 309 308 307 306 305 304 303 302 301 300 299 298 296 295 294 293 292 291 289 288 287 285 284 283 282 281 280 280 279 279 278 278 278 278 278 279 279 279 279 279 279
301 301 302 303 303 304 304 305 305 306 306 307 307 308 308 308 309 309 310 310 311 311 312 312 313 313 313 314 314 315 315 315 315 315 315 315 315 315 314 313 313 312 311 310 309 308 307 306 305 304 303 302 301 300 299 298 296 295 294 293 292 290 289 288 286 285 284 282 281 280 279 278 278 277 277 277 277 277 277 277 277 278 278 278 278 277
301 301 302 302 303 304 304 304 305 305 306 306 307 307 308 308 309 309 310 310 311 311 312 312 313 313 313 314 314 315 315 315 315 315 315 315 314 314 313 313 312 311 310 309 308 307 306 305 304 303 302 301 300 299 298 297 295 294 292 291 290 289 287 286 284 283 281 280 279 278 277 276 276 275 275 275 275 275 276 276 276 277 277 277 276 276
301 301 302 302 303 303 304 304 305 305 306 306 306 307 307 308 308 309 310 310 311 311 312 312 312 313 313 314 314 314 315 315 315 315 315 314 314 313 312 312 311 310 309 308 307 306 305 304 303 302 302 301 300 298 297 295 294 292 291 289 288 287 285 284 282 281 279 278 277 276 275 274 274 273 273 274 274 274 275 275 275 276 276 276 275 275
300 301 301 302 302 303 303 304 304 305 305 306 306 307 307 308 308 309 310 310 311 311 312 312 312 313 313 314 314 314 315 315 314 314 314 314 313 312 311 311 310 309 308 307 306 305 304 303 303 302 301 300 298 297 296 294 292 291 289 288 286 285 283 282 280 279 277 276 275 273 273 272 272 272 272 272 272 273 274 274 275 275 275 275 274 274
300 301 301 301 302 302 303 303 304 304 305 305 306 306 307 308 308 309 309 310 311 311 311 312 312 313 313 314 314 314 314 314 314 314 314 313 312 311 311 310 309 308 307 306 305 304 304 303 302 301 300 299 297 296 294 293 291 289 287 286 284 283 281 279 278 276 275 273 272 271 270 270 270 270 270 271 271 272 273 273 274 274 274 273 273 272
300 300 301 301 301 302 302 303 303 304 305 305 306 306 307 308 308 309 309 310 310 311 311 312 312 313 313 313 314 314 314 314 313 313 313 312 311 311 310 309 308 307 306 306 305 304 303 302 301 300 299 297 296 294 293 291 289 287 285 284 282 281 279 277 275 274 272 271 270 269 268 268 268 268 269 269 270 271 272 273 273 273 273 272 272 271
299 300 300 301 301 301 302 303 303 304 304 305 306 306 307 308 308 309 309 310 310 310 311 311 312 312 313 313 313 313 313 313 313 312 312 311 310 310 309 308 307 306 306 305 304 303 302 301 300 299 297 296 295 293 291 289 287 285 284 282 280 278 276 274 273 271 269 268 268 267 266 266 266 267 268 268 269 270 271 272 272 272 272 271 271 270
299 299 300 300 301 301 302 302 303 304 304 305 306 306 307 308 308 309 309 309 310 310 311 311 312 312 313 313 313 313 313 312 312 312 311 310 310 309 308 307 306 306 305 304 303 302 301 300 299 298 296 295 293 291 289 287 285 283 281 280 278 276 274 272 270 268 267 266 265 265 264 264 265 265 266 267 269 270 270 271 271 271 271 271 270 269
298 299 299 300 300 301 302 302 303 304 304 305 306 306 307 307 308 308 309 309 310 310 311 311 312 312 312 312 312 312 312 312 311 311 310 309 309 308 307 306 306 305 304 303 302 302 301 299 298 297 295 293 291 289 287 285 283 281 279 277 276 273 271 269 267 265 264 263 263 262 262 263 263 264 265 266 268 269 270 270 270 270 270 270 269 269
298 298 299 300 300 301 302 302 303 304 304 305 306 306 307 307 308 308 308 309 310 310 311 311 312 312 312 312 312 312 311 311 310 310 309 308 308 307 307 306 305 304 303 302 302 301 300 298 297 295 293 292 290 287 285 283 280 279 277 275 273 271 269 266 264 263 262 261 261 261 261 261 262 263 264 265 267 268 269 269 270 270 269 269 269 268
298 298 299 299 300 301 302 302 303 304 304 305 305 306 306 307 307 308 308 309 310 310 311 311 311 311 311 311 311 311 311 310 309 309 308 308 307 306 306 305 304 303 303 302 301 300 299 297 296 294 292 290 287 285 283 280 278 276 274 272 270 268 266 263 262 260 259 259 259 259 259 260 261 262 263 264 266 267 268 268 269 269 269 268 268 267
297 298 299 299 300 301 302 302 303 304 304 305 305 306 306 307 307 308 308 309 310 310 310 311 311 311 310 310 310 310 310 309 309 308 308 307 306 306 305 304 303 303 302 301 300 299 298 296 294 292 290 288 285 283 280 278 276 274 271 269 267 265 263 261 259 258 257 257 257 257 258 259 259 261 262 264 265 266 267 267 268 268 268 268 267 267
297 298 299 299 300 301 301 302 303 303 304 305 305 305 306 306 307 308 308 309 309 310 310 310 310 310 310 309 309 309 309 308 308 307 307 306 305 305 304 303 303 302 301 300 299 298 296 295 293 290 288 286 283 281 278 276 273 271 269 266 264 262 260 258 257 256 256 256 256 256 256 257 259 260 261 263 264 265 266 267 267 267 267 267 266 266
297 298 299 299 300 301 301 302 303 303 304 304 305 305 306 306 307 308 308 309 309 309 309 309 309 309 309 309 308 308 308 308 307 306 306 305 304 304 303 303 302 301 300 299 298 297 295 293 291 288 286 283 281 278 276 273 271 268 266 263 261 259 257 256 255 254 254 254 254 255 255 256 257 259 260 262 263 264 265 266 266 266 266 266 266 265
297 298 299 299 300 301 301 302 303 303 304 304 305 305 306 306 307 308 308 309 309 309 309 308 308 308 308 308 307 307 307 307 306 306 305 304 304 303 303 302 301 300 299 298 297 295 293 291 289 286 284 281 279 276 274 271 268 265 262 260 258 256 255 254 253 253 253 253 253 253 254 255 257 258 259 261 262 263 264 265 265 265 265 265 265 265
297 298 299 299 300 301 301 302 303 303 304 304 305 305 306 306 307 308 308 308 308 308 308 307 307 307 307 307 307 307 307 306 305 305 304 303 303 303 302 301 300 299 298 297 295 294 292 289 287 284 281 279 276 274 271 268 265 262 259 257 255 254 253 252 252 252 252 252 252 253 253 254 256 257 259 260 261 263 263 264 264 265 265 265 265 265
297 298 299 299 300 301 301 302 302 303 303 304 304 305 306 306 307 307 307 307 307 307 307 306 306 306 306 306 306 306 306 305 305 304 303 302 302 302 301 300 299 298 297 296 294 292 290 287 284 282 279 277 274 271 268 265 262 259 257 254 253 251 251 251 251 250 251 251 251 252 252 254 255 256 258 259 260 262 262 263 264 264 264 264 264 264
297 298 298 299 300 301 301 302 302 303 303 304 304 305 306 306 307 307 307 307 306 306 306 306 306 305 305 306 306 305 305 304 304 303 302 302 301 301 300 299 298 297 296 294 292 290 288 285 282 279 277 274 271 268 266 263 259 257 254 252 251 250 250 250 249 250 250 250 250 251 252 253 254 255 257 258 259 261 262 262 263 263 263 264 264 264
297 298 298 299 300 300 301 301 302 303 303 304 304 305 305 306 306 306 306 306 305 305 305 305 305 304 305 305 305 305 304 304 303 302 301 301 300 300 299 298 297 296 294 293 291 288 286 283 280 277 274 271 268 266 263 260 257 254 252 251 250 249 249 249 249 249 249 249 250 250 251 252 253 255 256 257 258 260 261 261 262 262 263 263 263 264
297 298 298 299 300 300 301 301 302 303 303 304 304 305 305 305 305 305 305 305 304 304 304 304 304 304 304 304 304 304 303 303 302 301 301 300 300 299 298 297 296 295 293 291 289 287 284 281 278 275 272 269 266 263 260 258 255 253 251 250 249 248 248 248 248 248 248 249 249 249 250 251 253 254 255 256 257 259 260 260 261 262 262 263 263 263
297 297 298 299 299 300 301 301 302 302 303 304 304 304 304 304 304 304 304 304 304 303 303 303 303 303 303 303 303 303 302 302 301 300 300 299 299 298 298 297 295 294 292 290 287 285 282 279 276 273 269 266 264 261 258 256 253 251 250 249 248 248 248 248 248 248 248 248 248 249 250 251 252 253 255 256 257 258 258 259 260 261 262 262 263 263
297 297 298 299 299 300 300 301 302 302 303 303 303 304 304 303 303 303 303 303 303 303 302 302 303 303 302 302 302 301 301 301 300 300 299 299 298 297 297 296 294 292 290 288 286 283 280 277 274 271 267 264 262 259 256 254 252 250 249 248 248 247 247 247 247 247 247 248 248 249 250 251 252 253 254 255 256 257 258 258 259 260 261 262 263 263
296 297 298 298 299 300 300 301 301 302 302 303 303 303 303 302 302 302 302 302 302 302 302 302 302 302 301 301 301 301 300 300 300 299 299 298 297 296 296 295 293 291 289 287 285 282 278 275 272 269 265 263 260 257 255 253 251 250 248 248 247 247 247 247 247 247 247 247 248 248 249 251 252 253 254 255 256 257 257 258 259 260 261 262 263 263
296 297 298 298 299 300 300 301 301 301 302 302 302 302 302 301 301 301 301 301 301 301 301 301 301 301 301 300 300 300 300 299 299 299 298 297 296 295 295 293 292 290 288 286 284 281 277 274 271 267 264 262 259 257 254 252 251 249 248 248 247 247 247 247 247 247 247 247 248 248 249 250 252 253 254 255 256 256 257 258 259 259 260 262 262 263
296 297 297 298 299 299 300 300 301 301 301 301 301 301 300 300 300 300 300 300 300 301 301 301 300 300 300 299 299 299 299 299 299 298 297 296 295 294 294 292 291 289 287 285 282 280 277 274 270 267 264 261 259 256 254 252 250 249 248 248 247 247 247 247 247 247 247 247 248 248 249 250 251 253 254 254 255 256 257 258 258 259 260 262 262 264
296 297 297 298 298 299 299 300 300 300 300 300 300 300 299 299 299 299 300 300 300 300 300 300 299 299 299 299 298 298 298 298 298 297 296 295 295 294 293 291 290 288 286 283 281 279 276 274 271 267 264 261 259 256 254 252 251 249 248 248 247 247 247 247 247 247 247 247 248 248 249 250 252 253 253 254 255 256 257 257 258 259 260 261 263 264
296 296 297 297 298 298 298 299 299 299 299 299 299 299 298 299 299 299 299 299 299 299 299 298 298 298 298 298 298 297 297 297 297 297 296 295 294 293 292 290 289 287 285 283 281 278 276 274 271 268 265 262 259 256 254 252 251 250 249 248 248 247 247 247 247 247 247 247 248 249 249 250 251 252 253 254 255 256 256 257 258 259 260 261 263 264
296 296 297 297 297 297 298 298 298 298 298 298 298 298 298 298 298 298 298 298 298 298 298 297 297 297 297 297 297 297 297 296 296 296 295 294 293 292 291 290 288 287 285 283 281 279 276 274 272 269 266 263 260 257 255 252 251 250 249 248 248 248 247 247 247 247 247 247 248 249 249 250 251 252 253 254 255 255 256 257 257 258 259 261 262 263
295 296 296 296 296 296 297 297 297 297 297 297 297 297 297 298 298 298 297 297 297 297 296 296 296 296 296 296 296 296 296 296 295 295 294 293 292 291 290 289 287 286 284 283 281 279 276 274 272 269 267 264 261 258 255 253 251 250 249 249 248 248 248 247 247 247 247 247 248 248 249 250 251 252 253 254 254 255 256 256 257 258 259 260 261 263
295 295 295 295 295 295 295 295 295 296 296 296 296 297 297 297 297 297 297 296 296 296 295 295 295 295 295 295 295 295 295 295 295 294 293 292 291 290 289 288 286 285 283 282 280 278 275 273 271 269 267 265 262 260 257 255 253 251 250 249 248 248 248 248 247 247 247 248 248 248 249 250 251 252 253 254 254 255 256 256 257 257 258 259 261 262
294 294 294 294 294 294 294 294 295 295 295 296 296 296 296 296 296 296 296 295 295 295 295 295 295 295 295 295 294 294 294 294 294 293 293 292 291 289 288 287 285 284 282 280 278 276 274 271 269 267 265 264 262 260 258 256 254 252 251 250 249 248 248 248 247 247 247 247 248 249 249 250 251 252 252 253 254 255 255 256 256 257 258 259 260 261
293 293 293 293 293 293 293 294 294 294 295 295 295 295 295 295 295 295 294 294 294 294 294 294 294 294 294 294 294 294 294 293 293 292 292 291 290 289 287 286 285 283 281 279 277 275 272 269 267 265 263 262 261 259 258 256 254 253 252 251 250 249 248 248 247 247 247 247 248 248 249 250 251 252 252 253 254 255 255 256 256 257 258 258 259 260
292 292 292 292 292 292 293 293 293 294 294 294 295 294 294 294 294 294 293 293 293 293 293 293 293 293 293 293 293 293 292 292 292 291 291 290 289 288 287 285 284 282 280 279 277 274 272 269 266 263 261 260 259 258 257 256 255 254 253 252 251 249 249 248 247 247 247 247 248 248 249 250 250 251 252 253 254 255 255 256 256 257 257 258 259 260
291 291 291 291 292 292 292 293 293 293 293 294 293 293 293 293 293 293 292 292 292 292 292 292 292 292 292 292 292 292 291 291 291 290 289 289 288 287 286 285 283 282 280 279 277 274 272 269 266 264 261 259 257 257 256 255 255 254 253 252 251 250 249 248 248 247 247 247 248 248 249 249 250 251 252 253 254 255 255 256 257 257 258 258 259 260
290 290 290 291 291 292 292 292 292 292 292 292 292 292 292 292 292 292 292 292 291 291 291 291 291 291 291 291 290 290 290 290 289 289 288 288 287 286 285 284 283 282 280 279 277 275 273 270 268 265 262 259 257 256 255 255 254 254 253 252 251 250 249 249 248 248 248 248 248 248 249 249 250 251 252 253 254 254 255 256 257 257 258 258 259 260
289 290 290 290 291 291 291 291 291 291 291 291 291 291 291 291 291 291 291 291 291 290 290 290 290 289 289 289 289 289 288 288 288 287 287 286 285 285 284 283 282 281 280 278 277 275 273 271 269 266 263 261 258 256 255 255 255 254 253 252 252 251 250 249 249 248 248 248 248 249 249 250 250 251 252 253 254 255 255 256 257 258 258 259 259 260
289 289 290 290 290 290 290 290 290 290 290 290 290 290 290 290 290 290 290 290 290 290 289 289 288 288 288 287 287 287 286 286 286 285 285 285 284 283 283 282 281 280 279 278 277 275 274 272 270 268 265 263 260 257 256 255 255 254 254 253 252 251 249 249 249 249 248 249 249 249 250 250 251 252 253 253 254 255 256 257 257 258 259 259 260 261
289 289 289 289 289 289 289 289 289 289 289 289 289 289 289 289 289 289 289 289 289 289 288 288 288 287 286 286 285 285 284 284 284 283 283 283 282 282 281 281 280 279 278 277 276 275 274 272 271 269 267 264 261 259 257 256 255 254 254 253 252 251 250 249 249 249 249 249 249 250 250 251 252 252 253 254 255 256 256 257 258 258 259 259 260 261
288 288 288 288 288 288 288 288 288 288 288 288 288 288 288 288 288 288 288 287 287 287 287 287 286 286 285 284 283 283 282 282 282 281 281 281 281 280 280 279 279 278 277 276 275 274 273 272 271 269 268 265 263 260 258 256 255 255 254 254 253 252 251 251 250 250 250 250 250 251 251 252 252 253 254 255 255 256 257 258 258 259 259 260 261 261
287 287 287 287 287 287 287 287 287 288 288 288 288 288 288 288 287 287 287 286 286 286 285 285 285 284 284 283 283 282 281 280 280 279 279 279 279 279 278 278 277 277 276 275 274 273 272 271 271 269 268 266 264 262 259 257 256 255 254 254 253 252 252 252 251 251 251 251 251 252 252 253 253 254 254 255 256 257 257 258 259 259 260 260 261 261
286 286 286 286 286 286 286 286 287 287 287 287 287 287 287 287 287 287 286 285 285 284 284 284 283 283 282 282 282 281 280 279 278 278 277 277 277 277 277 276 276 275 274 274 273 273 272 271 270 269 268 266 265 263 261 259 257 255 254 253 253 253 252 252 252 252 252 252 252 252 253 253 254 254 255 256 256 257 258 258 259 259 260 260 261 261
285 285 285 285 285 285 286 286 286 286 287 287 287 287 287 287 286 286 285 285 284 284 283 282 282 281 281 281 280 280 279 279 278 277 277 276 275 275 275 274 274 274 273 272 272 271 271 270 269 268 267 266 265 264 262 260 258 256 255 254 253 253 252 253 253 253 253 253 253 253 254 254 254 255 255 256 257 257 258 258 259 259 260 260 261 261
284 284 284 284 285 285 285 285 286 286 286 286 286 286 286 286 285 285 285 284 284 283 282 281 281 280 280 279 279 279 278 278 277 277 276 275 275 274 273 273 272 272 271 271 270 270 269 269 268 267 266 265 265 264 263 261 259 258 256 255 253 253 253 253 253 253 253 254 254 254 254 254 255 255 256 256 257 257 258 258 259 259 260 260 261 261
284 284 284 284 285 285 285 285 285 285 285 285 285 285 285 285 285 284 284 283 283 282 282 281 280 280 279 278 278 277 277 277 277 276 276 275 274 273 272 272 271 271 270 270 269 268 268 267 267 266 265 265 264 264 263 262 261 259 257 256 255 254 253 253 253 254 254 254 254 255 255 255 255 256 256 256 257 257 258 258 259 259 260 260 261 261
284 284 284 284 284 285 285 285 285 285 284 284 284 284 284 284 283 283 283 282 282 282 281 280 280 279 278 278 277 276 276 275 275 275 275 274 274 273 272 271 270 270 269 268 268 267 266 266 265 265 265 264 263 263 263 262 262 260 259 258 256 255 255 254 254 254 254 254 255 255 255 255 256 256 256 257 257 258 258 258 259 259 260 260 261 261
Height
10602 10600 10598 10596 10594 10592 10589 10587 10586 10585 10582 10580 10577 10575 10573 10570 10568 10565 10563 10561 10559 10556 10554 10551 10548 10546 10543 10540 10537 10533 10530 10526 10523 10520 10517 10513 10510 10506 10503 10499 10496 10493 10490 10487 10484 10481 10479 10477 10475 10473 10471 10468 10466 10465 10463 10461 10460 10459 10458 10456 10456 10455 10454 10453 10453 10451 10451 10450 10450 10450 10449 10449 10448 10448 10448 10448 10448 10448 10447 10447 10447 10446 10446 10446 10446 10446
10597 10594 10592 10590 10589 10587 10584 10581 10580 10578 10576 10574 10571 10570 10568 10565 10563 10560 10558 10556 10553 10551 10548 10546 10543 10540 10537 10534 10531 10528 10524 10521 10517 10514 10511 10507 10504 10500 10497 10493 10490 10487 10484 10481 10478 10476 10473 10471 10470 10467 10465 10463 10461 10460 10458 10456 10455 10454 10453 10451 10451 10450 10450 10449 10448 10448 10447 10446 10446 10445 10445 10445 10445 10445 10445 10445 10445 10444 10444 10444 10444 10443 10443 10443 10443 10443
10592 10589 10586 10584 10583 10581 10579 10576 10574 10572 10570 10568 10566 10564 10562 10560 10557 10555 10553 10550 10548 10545 10542 10540 10537 10534 10531 10528 10525 10522 10518 10515 10511 10508 10505 10501 10498 10494 10491 10487 10484 10481 10478 10475 10473 10470 10468 10466 10464 10461 10460 10458 10456 10455 10453 10451 10450 10449 10448 10446 10446 10446 10445 10445 10444 10443 10443 10442 10442 10441 10441 10441 10441 10441 10441 10441 10441 10441 10441 10441 10441 10441 10440 10440 10440 10440
10586 10584 10581 10578 10576 10575 10573 10571 10569 10566 10564 10562 10560 10558 10556 10554 10551 10549 10546 10545 10542 10539 10536 10533 10530 10528 10525 10521 10519 10516 10513 10509 10505 10501 10498 10495 10491 10488 10485 10481 10478 10476 10473 10470 10467 10465 10462 10460 10458 10456 10454 10452 10451 10449 10448 10446 10445 10444 10443 10442 10441 10441 10441 10440 10440 10440 10439 10438 10438 10438 10438 10438 10438 10438 10438 10438 10438 10438 10438 10438 10438 10438 10438 10438 10438 10438
10581 10578 10575 10573 10570 10568 10566 10565 10563 10561 10558 10556 10554 10553 10551 10548 10546 10543 10540 10538 10536 10533 10530 10527 10525 10521 10518 10515 10512 10510 10506 10503 10499 10495 10492 10488 10485 10481 10478 10475 10473 10470 10467 10464 10461 10459 10456 10455 10453 10451 10449 10447 10445 10444 10443 10441 10440 10440 10438 10438 10437 10436 10436 10436 10436 10436 10435 10435 10435 10435 10435 10435 10435 10435 10435 10435 10435 10435 10435 10435 10435 10435 10435 10435 10435 10435
10574 10572 10570 10568 10565 10563 10560 10558 10557 10555 10553 10550 10548 10546 10544 10543 10540 10538 10535 10532 10530 10526 10523 10521 10518 10515 10513 10510 10506 10503 10500 10496 10493 10489 10486 10482 10479 10475 10472 10470 10467 10464 10461 10458 10456 10453 10451 10449 10447 10445 10443 10442 10440 10439 10438 10437 10436 10435 10434 10433 10433 10433 10432 10432 10432 10432 10431 10431 10431 10431 10431 10431 10431 10431 10431 10431 10432 10432 10432 10432 10432 10432 10432 10432 10432 10432
10568 10566 10564 10562 10560 10557 10555 10553 10551 10550 10548 10545 10541 10539 10536 10535 10534 10532 10530 10527 10525 10521 10518 10514 10511 10508 10506 10503 10500 10497 10493 10490 10486 10483 10479 10476 10473 10470 10466 10464 10461 10458 10456 10453 10450 10448 10445 10443 10441 10440 10438 10437 10435 10435 10433 10432 10431 10430 10430 10429 10429 10428 10428 10428 10428 10428 10428 10428 10428 10428 10428 10428 10428 10428 10428 10429 10429 10429 10429 10429 10430 10430 10430 10430 10430 10430
10561 10560 10557 10555 10553 10551 10549 10546 10545 10543 10543 10540 10537 10533 10530 10528 10526 10525 10523 10521 10519 10516 10513 10508 10505 10501 10498 10496 10494 10491 10486 10483 10479 10476 10473 10470 10466 10464 10461 10458 10455 10453 10450 10447 10445 10442 10440 10438 10436 10435 10433 10432 10431 10430 10429 10428 10427 10426 10426 10425 10425 10425 10425 10425 10425 10425 10425 10425 10425 10425 10425 10425 10425 10426 10426 10426 10426 10426 10426 10426 10426 10426 10426 10427 10427 10427
10556 10554 10551 10549 10548 10546 10544 10541 10538 10537 10536 10535 10532 10529 10526 10523 10521 10518 10515 10513 10511 10509 10506 10503 10499 10495 10492 10489 10486 10484 10480 10476 10473 10470 10467 10464 10461 10458 10455 10452 10450 10447 10445 10441 10439 10437 10435 10433 10431 10430 10428 10427 10426 10425 10425 10423 10423 10422 10421 10421 10421 10421 10421 10421 10421 10421 10421 10421 10421 10422 10422 10422 10423 10423 10423 10423 10423 10423 10423 10424 10424 10424 10424 10424 10424 10425
10548 10547 10546 10543 10541 10540 10538 10536 10534 10531 10530 10528 10526 10523 10521 10519 10516 10513 10510 10505 10503 10501 10499 10496 10493 10490 10486 10483 10480 10476 10474 10470 10466 10463 10461 10458 10455 10452 10449 10446 10444 10441 10439 10436 10434 10431 10430 10428 10426 10425 10423 10423 10421 10421 10420 10420 10418 10418 10418 10418 10418 10418 10418 10418 10418 10418 10418 10418 10419 10419 10419 10420 10420 10420 10420 10420 10420 10420 10421 10421 10421 10421 10421 10421 10421 10421
10541 10540 10539 10537 10535 10533 10532 10531 10528 10526 10525 10523 10520 10517 10515 10513 10511 10508 10505 10500 10496 10493 10491 10488 10485 10483 10480 10476 10473 10470 10467 10463 10460 10457 10455 10452 10449 10446 10443 10441 10438 10435 10433 10431 10428 10426 10425 10423 10421 10420 10419 10418 10417 10416 10416 10415 10415 10415 10414 10414 10414 10415 10415 10415 10415 10415 10415 10415 10416 10416 10416 10416 10417 10417 10417 10417 10418 10418 10418 10418 10418 10419 10419 10419 10419 10419
10536 10534 10533 10531 10530 10528 10526 10525 10522 10520 10518 10516 10514 10511 10508 10505 10503 10501 10498 10495 10491 10488 10485 10482 10478 10475 10473 10470 10467 10464 10461 10457 10455 10451 10449 10446 10443 10441 10438 10435 10432 10430 10428 10425 10423 10421 10420 10418 10417 10416 10415 10414 10413 10413 10412 10411 10411 10411 10411 10411 10411 10411 10411 10411 10411 10412 10412 10413 10413 10413 10414 10414 10414 10415 10415 10415 10415 10415 10415 10416 10416 10416 10416 10416 10416 10416
10530 10528 10527 10525 10523 10521 10520 10518 10516 10513 10511 10510 10508 10505 10502 10499 10497 10495 10492 10488 10485 10481 10479 10476 10472 10469 10466 10464 10461 10458 10455 10451 10448 10446 10443 10441 10438 10435 10433 10430 10427 10425 10422 10420 10418 10416 10415 10414 10413 10411 10411 10410 10410 10409 10408 10408 10408 10407 10407 10407 10408 10408 10408 10408 10408 10409 10409 10410 10410 10411 10411 10411 10411 10411 10412 10412 10412 10413 10413 10413 10413 10413 10414 10414 10414 10414
10523 10522 10521 10519 10516 10515 10514 10513 10510 10508 10505 10503 10501 10499 10496 10493 10491 10488 10486 10482 10478 10475 10473 10470 10466 10462 10460 10458 10455 10452 10449 10446 10443 10440 10438 10435 10433 10430 10428 10425 10421 10420 10418 10416 10414 10413 10411 10410 10409 10408 10407 10406 10406 10405 10405 10405 10404 10404 10404 10404 10405 10405 10405 10405 10406 10406 10406 10407 10408 10408 10408 10409 10409 10409 10410 10410 10410 10410 10410 10411 10411 10411 10411 10411 10411 10412
10517 10516 10515 10513 10510 10509 10508 10506 10505 10502 10499 10496 10495 10493 10490 10487 10485 10481 10480 10476 10473 10470 10466 10463 10459 10456 10453 10451 10450 10447 10444 10440 10437 10435 10432 10429 10427 10425 10423 10420 10416 10415 10413 10411 10410 10409 10407 10406 10405 10404 10403 10403 10402 10402 10401 10401 10401 10401 10401 10401 10401 10402 10402 10403 10403 10403 10404 10405 10405 10405 10406 10406 10406 10406 10407 10407 10407 10408 10408 10408 10408 10408 10409 10409 10409 10410
10511 10510 10509 10507 10505 10503 10501 10500 10498 10496 10493 10491 10488 10486 10485 10481 10478 10476 10473 10470 10466 10463 10460 10457 10453 10450 10446 10444 10443 10441 10439 10435 10432 10429 10427 10424 10421 10420 10418 10415 10412 10410 10408 10408 10406 10405 10403 10402 10401 10400 10400 10399 10399 10398 10398 10398 10398 10398 10398 10398 10398 10399 10400 10400 10400 10401 10401 10402 10402 10403 10403 10403 10404 10404 10405 10405 10405 10405 10405 10406 10406 10406 10406 10406 10406 10407
10505 10504 10503 10501 10499 10496 10495 10493 10492 10490 10487 10485 10483 10480 10478 10476 10473 10470 10468 10465 10461 10458 10454 10451 10448 10445 10441 10438 10436 10435 10433 10430 10426 10424 10421 10418 10416 10414 10412 10410 10408 10405 10404 10403 10401 10400 10399 10398 10397 10396 10396 10396 10395 10395 10395 10395 10395 10395 10395 10395 10396 10396 10396 10397 10398 10398 10399 10399 10400 10400 10401 10401 10401 10401 10402 10402 10403 10403 10403 10403 10403 10403 10404 10404 10404 10405
10499 10498 10496 10495 10493 10490 10488 10487 10485 10484 10481 10479 10476 10474 10471 10469 10467 10465 10461 10458 10455 10452 10448 10445 10441 10438 10436 10433 10430 10428 10428 10425 10421 10418 10416 10413 10411 10409 10407 10405 10403 10401 10400 10398 10397 10396 10395 10395 10394 10393 10393 10392 10392 10392 10392 10392 10392 10392 10392 10393 10393 10393 10394 10395 10395 10396 10396 10396 10397 10398 10398 10398 10399 10399 10400 10400 10400 10400 10401 10401 10401 10401 10401 10401 10402 10402
10493 10491 10490 10489 10487 10485 10482 10480 10479 10478 10476 10473 10470 10468 10466 10463 10461 10458 10455 10453 10450 10446 10443 10440 10436 10433 10431 10428 10425 10423 10423 10420 10416 10413 10411 10408 10406 10404 10402 10400 10398 10396 10395 10395 10393 10393 10391 10391 10390 10390 10390 10389 10389 10389 10389 10389 10389 10389 10390 10390 10390 10391 10391 10392 10393 10393 10394 10394 10395 10395 10396 10396 10396 10397 10397 10398 10398 10398 10398 10398 10399 10399 10399 10400 10400 10400
10486 10485 10484 10483 10482 10480 10477 10474 10472 10471 10470 10467 10465 10462 10459 10456 10455 10452 10449 10446 10443 10440 10437 10434 10431 10428 10425 10423 10421 10419 10417 10415 10412 10409 10406 10404 10401 10399 10398 10396 10395 10393 10391 10390 10390 10389 10388 10388 10387 10386 10386 10386 10386 10386 10386 10386 10386 10386 10387 10387 10388 10388 10389 10390 10390 10391 10391 10391 10392 10393 10393 10394 10394 10395 10395 10395 10395 10396 10396 10396 10396 10396 10397 10397 10397 10398
10481 10479 10477 10476 10476 10475 10472 10469 10466 10465 10463 10461 10458 10456 10453 10450 10448 10445 10443 10440 10437 10434 10431 10428 10425 10423 10421 10418 10416 10414 10412 10410 10407 10404 10401 10399 10397 10395 10394 10392 10390 10389 10388 10387 10386 10386 10385 10385 10384 10383 10383 10383 10383 10383 10383 10383 10383 10384 10384 10385 10385 10386 10386 10387 10388 10388 10389 10390 10390 10390 10391 10391 10391 10392 10393 10393 10393 10393 10393 10394 10394 10395 10395 10395 10395 10395
10476 10473 10471 10470 10470 10468 10466 10464 10461 10459 10457 10455 10453 10450 10446 10445 10442 10439 10436 10434 10431 10428 10425 10423 10420 10418 10416 10414 10411 10410 10407 10405 10402 10400 10396 10394 10392 10391 10390 10388 10387 10385 10384 10383 10383 10383 10382 10381 10381 10380 10380 10380 10380 10380 10380 10381 10381 10381 10381 10382 10383 10383 10384 10385 10385 10386 10386 10386 10387 10388 10388 10389 10389 10390 10390 10390 10391 10391 10391 10391 10391 10392 10392 10392 10393 10393
10470 10468 10466 10465 10463 10461 10460 10458 10456 10453 10451 10449 10446 10444 10441 10439 10436 10433 10431 10428 10425 10423 10420 10418 10415 10413 10411 10409 10407 10405 10402 10400 10398 10395 10392 10390 10388 10386 10386 10385 10383 10382 10381 10380 10380 10380 10379 10378 10378 10378 10377 10377 10377 10377 10378 10378 10378 10378 10379 10380 10380 10381 10381 10381 10382 10383 10383 10384 10385 10385 10386 10386 10386 10387 10388 10388 10388 10388 10389 10389 10390 10390 10390 10390 10390 10390
10463 10462 10460 10459 10457 10456 10454 10452 10450 10448 10445 10443 10440 10437 10435 10432 10430 10428 10425 10423 10420 10418 10415 10412 10410 10407 10405 10403 10401 10400 10398 10396 10393 10390 10388 10386 10384 10383 10382 10381 10380 10378 10378 10377 10376 10376 10376 10375 10375 10375 10375 10375 10375 10375 10375 10375 10376 10376 10376 10377 10378 10378 10378 10379 10380 10380 10381 10381 10382 10383 10383 10384 10384 10385 10385 10385 10386 10386 10386 10386 10387 10387 10388 10388 10388 10388
10458 10456 10455 10453 10451 10450 10448 10446 10444 10442 10440 10437 10434 10431 10429 10426 10424 10421 10419 10417 10415 10412 10410 10407 10405 10402 10400 10398 10396 10395 10393 10391 10389 10386 10384 10381 10380 10379 10378 10378 10376 10375 10375 10374 10373 10373 10373 10373 10372 10372 10372 10372 10372 10372 10372 10373 10373 10373 10374 10375 10375 10375 10376 10376 10377 10378 10378 10379 10380 10380 10381 10381 10381 10382 10383 10383 10383 10384 10384 10384 10385 10385 10385 10385 10385 10386
10451 10450 10448 10446 10445 10443 10441 10440 10438 10436 10433 10431 10428 10426 10423 10420 10418 10415 10413 10411 10409 10407 10405 10402 10399 10397 10395 10393 10391 10390 10388 10386 10385 10383 10380 10378 10376 10375 10374 10374 10373 10372 10371 10371 10370 10370 10370 10370 10370 10370 10369 10369 10369 10370 10370 10370 10370 10371 10371 10371 10372 10373 10373 10374 10375 10375 10376 10376 10377 10378 10378 10378 10379 10380 10380 10380 10381 10381 10381 10382 10382 10383 10383 10383 10383 10383
10445 10443 10442 10440 10438 10436 10435 10433 10431 10430 10428 10425 10423 10420 10417 10415 10412 10409 10406 10405 10404 10402 10400 10397 10395 10392 10390 10388 10386 10385 10384 10383 10381 10379 10376 10375 10373 10371 10371 10370 10370 10369 10368 10368 10367 10367 10367 10366 10366 10366 10366 10366 10366 10367 10367 10367 10368 10368 10368 10369 10370 10370 10371 10371 10372 10373 10373 10374 10375 10375 10375 10376 10376 10377 10377 10378 10378 10379 10379 10380 10380 10380 10380 10380 10381 10381
10439 10437 10436 10434 10432 10430 10428 10427 10425 10423 10421 10419 10416 10414 10411 10409 10406 10403 10401 10400 10398 10396 10394 10392 10390 10388 10385 10383 10382 10380 10380 10378 10377 10375 10373 10371 10369 10368 10367 10367 10366 10365 10365 10365 10364 10364 10364 10364 10364 10364 10364 10364 10364 10364 10365 10365 10365 10365 10366 10366 10366 10367 10368 10368 10369 10370 10370 10371 10371 10372 10373 10373 10374 10374 10375 10375 10376 10376 10376 10377 10377 10378 10378 10378 10378 10378
10433 10431 10430 10427 10425 10423 10422 10420 10419 10417 10415 10413 10411 10408 10406 10403 10401 10398 10396 10395 10393 10391 10388 10386 10385 10383 10381 10379 10377 10376 10375 10374 10373 10371 10370 10368 10365 10364 10364 10363 10363 10362 10361 10361 10361 10361 10361 10361 10361 10361 10361 10361 10361 10361 10361 10362 10362 10363 10363 10363 10364 10365 10365 10366 10366 10367 10368 10368 10369 10370 10370 10370 10371 10371 10372 10373 10373 10373 10374 10374 10375 10375 10375 10375 10376 10376
10427 10425 10423 10421 10419 10417 10415 10414 10412 10411 10409 10407 10405 10403 10401 10398 10396 10393 10391 10389 10387 10385 10383 10381 10380 10378 10376 10375 10373 10371 10370 10370 10369 10368 10366 10364 10362 10361 10361 10360 10359 10358 10358 10358 10358 10358 10357 10358 10358 10358 10358 10358 10358 10358 10359 10359 10360 10360 10360 10361 10361 10361 10362 10363 10363 10364 10365 10365 10366 10366 10367 10368 10368 10368 10369 10370 10370 10371 10371 10371 10371 10372 10373 10373 10373 10373
10421 10419 10417 10415 10413 10411 10409 10407 10405 10404 10403 10401 10400 10398 10396 10393 10391 10388 10386 10384 10382 10380 10378 10376 10375 10373 10371 10370 10369 10367 10366 10365 10365 10365 10363 10361 10359 10358 10358 10356 10356 10355 10355 10355 10355 10355 10354 10354 10355 10355 10355 10355 10355 10356 10356 10356 10356 10357 10357 10358 10358 10359 10360 10360 10361 10361 10362 10362 10363 10363 10364 10365 10365 10366 10366 10366 10367 10368 10368 10369 10369 10370 10370 10370 10370 10370
10415 10413 10411 10409 10406 10405 10403 10401 10399 10398 10396 10395 10393 10392 10390 10388 10386 10383 10381 10378 10376 10375 10373 10371 10370 10368 10367 10366 10365 10363 10362 10361 10361 10360 10360 10358 10356 10355 10355 10353 10353 10351 10351 10351 10351 10351 10351 10351 10351 10351 10352 10352 10352 10353 10353 10353 10354 10354 10355 10355 10355 10356 10356 10357 10358 10358 10359 10360 10360 10361 10361 10361 10362 10363 10363 10363 10364 10365 10365 10366 10366 10366 10367 10367 10368 10368
10408 10406 10405 10403 10401 10398 10396 10395 10393 10391 10390 10388 10388 10386 10385 10383 10380 10378 10375 10373 10371 10370 10368 10366 10365 10363 10362 10361 10360 10359 10358 10357 10356 10356 10356 10354 10353 10351 10351 10350 10350 10349 10348 10348 10348 10348 10348 10348 10348 10348 10349 10349 10350 10350 10350 10350 10351 10351 10351 10352 10352 10353 10353 10354 10355 10355 10356 10356 10357 10358 10358 10358 10359 10360 10360 10360 10361 10361 10362 10363 10363 10363 10364 10365 10365 10365
10402 10400 10398 10396 10395 10392 10390 10389 10387 10385 10384 10383 10381 10380 10378 10377 10375 10372 10370 10368 10366 10365 10364 10362 10361 10359 10358 10357 10356 10355 10354 10353 10353 10353 10352 10351 10350 10348 10348 10347 10346 10346 10345 10345 10345 10345 10345 10345 10345 10346 10346 10346 10346 10346 10347 10348 10348 10348 10348 10349 10349 10350 10350 10351 10351 10352 10353 10353 10354 10355 10355 10355 10356 10356 10357 10357 10358 10358 10359 10360 10360 10360 10361 10361 10361 10362
10395 10393 10391 10390 10388 10386 10385 10383 10381 10380 10378 10376 10375 10374 10373 10371 10369 10367 10365 10363 10361 10360 10359 10358 10356 10355 10354 10353 10351 10351 10350 10350 10349 10349 10348 10347 10346 10345 10345 10344 10343 10343 10342 10341 10341 10341 10341 10341 10342 10342 10343 10343 10343 10343 10344 10345 10345 10345 10345 10346 10346 10346 10347 10348 10348 10349 10350 10350 10351 10351 10351 10352 10353 10353 10353 10354 10355 10355 10356 10356 10357 10357 10358 10358 10358 10359
10389 10386 10385 10383 10381 10380 10378 10376 10375 10373 10372 10371 10369 10368 10366 10365 10363 10361 10360 10358 10356 10355 10354 10353 10352 10351 10350 10349 10348 10346 10346 10345 10345 10345 10344 10343 10343 10342 10341 10340 10340 10340 10339 10338 10338 10338 10338 10338 10339 10339 10340 10340 10340 10340 10341 10341 10342 10342 10342 10342 10343 10343 10344 10345 10345 10346 10346 10347 10347 10348 10348 10349 10350 10350 10350 10351 10351 10351 10352 10353 10353 10354 10355 10355 10355 10356
10382 10380 10378 10376 10375 10374 10373 10371 10370 10368 10366 10365 10363 10361 10360 10359 10358 10356 10354 10352 10351 10350 10349 10348 10347 10346 10345 10345 10343 10343 10342 10341 10341 10340 10340 10340 10339 10338 10338 10337 10336 10336 10336 10335 10335 10335 10335 10335 10336 10336 10336 10336 10336 10337 10338 10338 10338 10339 10339 10339 10340 10340 10340 10341 10341 10342 10343 10343 10344 10345 10345 10345 10346 10346 10346 10347 10348 10348 10349 10350 10350 10351 10351 10351 10352 10352
10375 10373 10371 10370 10369 10368 10366 10365 10363 10362 10360 10358 10357 10355 10354 10353 10352 10350 10349 10348 10346 10345 10344 10343 10343 10341 10341 10340 10340 10338 10338 10338 10337 10336 10336 10335 10335 10335 10334 10333 10333 10333 10333 10332 10332 10332 10332 10332 10332 10332 10333 10333 10333 10334 10335 10335 10335 10335 10335 10336 10336 10336 10337 10338 10338 10339 10339 10340 10340 10341 10341 10342 10342 10343 10343 10344 10345 10345 10345 10346 10346 10347 10348 10348 10349 10349
10369 10367 10365 10364 10363 10361 10360 10359 10358 10356 10355 10353 10351 10350 10348 10347 10346 10345 10344 10343 10341 10340 10340 10338 10338 10337 10336 10336 10335 10335 10334 10333 10333 10333 10332 10331 10331 10331 10330 10330 10329 10329 10329 10329 10329 10328 10328 10328 10329 10329 10329 10330 10330 10330 10331 10331 10331 10331 10331 10332 10333 10333 10333 10334 10335 10335 10336 10336 10336 10337 10338 10338 10339 10339 10340 10340 10341 10341 10341 10342 10343 10344 10345 10345 10345 10346
10363 10361 10359 10358 10356 10355 10354 10353 10351 10350 10349 10347 10345 10344 10342 10341 10340 10340 10339 10338 10337 10336 10335 10334 10333 10333 10332 10331 10331 10330 10330 10329 10329 10328 10328 10328 10327 10327 10326 10326 10325 10325 10325 10325 10325 10325 10325 10325 10325 10325 10326 10326 10326 10326 10327 10327 10328 10328 10328 10328 10329 10329 10330 10330 10331 10331 10332 10333 10333 10333 10334 10335 10335 10335 10336 10336 10337 10337 10338 10338 10340 10340 10341 10341 10342 10342
10356 10355 10353 10351 10350 10348 10347 10346 10345 10344 10343 10341 10340 10338 10337 10336 10335 10334 10333 10333 10332 10331 10331 10330 10329 10328 10327 10327 10326 10326 10325 10325 10325 10325 10324 10324 10323 10323 10323 10322 10322 10321 10321 10321 10321 10321 10321 10321 10321 10321 10321 10322 10322 10323 10323 10323 10323 10324 10325 10325 10325 10325 10326 10326 10327 10328 10328 10328 10329 10330 10330 10330 10331 10331 10332 10333 10333 10333 10334 10335 10336 10336 10337 10338 10338 10338
10350 10348 10347 10345 10343 10342 10341 10340 10339 10338 10337 10336 10335 10333 10332 10331 10330 10329 10328 10327 10326 10326 10326 10325 10325 10324 10323 10322 10322 10321 10321 10321 10320 10320 10320 10320 10320 10319 10319 10318 10318 10318 10318 10317 10317 10317 10318 10318 10318 10318 10318 10318 10318 10318 10318 10319 10320 10320 10321 10321 10321 10321 10322 10323 10323 10324 10325 10325 10325 10326 10326 10326 10327 10327 10328 10328 10329 10330 10330 10331 10331 10333 10333 10334 10335 10335
10344 10342 10341 10339 10337 10336 10335 10333 10332 10331 10331 10330 10329 10328 10327 10326 10325 10324 10323 10322 10321 10321 10320 10320 10320 10320 10319 10318 10318 10317 10317 10316 10316 10316 10316 10315 10315 10315 10315 10315 10315 10314 10314 10313 10313 10313 10313 10314 10314 10314 10314 10314 10315 10315 10315 10315 10315 10316 10316 10317 10318 10318 10318 10318 10319 10320 10320 10321 10321 10321 10322 10322 10323 10323 10324 10325 10325 10326 10326 10327 10328 10328 10329 10330 10330 10331
10338 10336 10334 10333 10331 10330 10328 10326 10326 10325 10325 10323 10323 10322 10321 10321 10320 10320 10318 10317 10316 10315 10315 10315 10315 10315 10315 10314 10313 10313 10313 10312 10312 10311 10311 10311 10311 10311 10311 10311 10310 10310 10310 10310 10310 10309 10310 10310 10310 10310 10310 10310 10310 10310 10310 10311 10311 10312 10312 10313 10314 10314 10314 10315 10315 10316 10316 10316 10317 10318 10318 10318 10319 10320 10320 10321 10321 10322 10323 10323 10324 10325 10325 10326 10326 10326
10331 10330 10328 10326 10325 10323 10321 10320 10320 10319 10318 10318 10317 10316 10316 10316 10315 10315 10313 10313 10311 10311 10310 10310 10309 10309 10309 10309 10309 10308 10308 10308 10308 10308 10307 10307 10307 10307 10307 10306 10306 10306 10306 10306 10306 10305 10305 10305 10305 10306 10306 10306 10306 10306 10306 10306 10307 10308 10308 10309 10310 10310 10310 10311 10311 10312 10312 10312 10313 10313 10314 10315 10315 10315 10316 10316 10317 10318 10318 10320 10320 10321 10321 10322 10322 10323
10325 10323 10321 10320 10318 10317 10316 10315 10314 10313 10312 10311 10311 10310 10310 10310 10310 10309 10308 10308 10307 10306 10305 10305 10305 10304 10303 10303 10303 10304 10303 10303 10303 10303 10303 10303 10303 10303 10303 10303 10302 10302 10302 10301 10301 10301 10301 10301 10301 10301 10302 10302 10302 10302 10302 10303 10303 10304 10304 10305 10305 10306 10306 10307 10307 10308 10308 10308 10309 10309 10310 10311 10311 10311 10311 10312 10313 10314 10315 10315 10316 10316 10317 10318 10318 10318
10319 10317 10315 10314 10313 10311 10310 10309 10308 10308 10306 10306 10305 10305 10305 10304 10304 10303 10303 10303 10302 10301 10300 10300 10300 10299 10298 10298 10298 10298 10298 10298 10298 10298 10298 10298 10298 10298 10298 10298 10298 10298 10298 10298 10298 10297 10297 10298 10298 10298 10298 10298 10298 10298 10298 10299 10300 10300 10300 10301 10301 10301 10302 10302 10303 10303 10304 10305 10305 10305 10306 10306 10306 10307 10307 10308 10309 10310 10310 10311 10312 10313 10313 10313 10314 10314
10312 10311 10309 10308 10307 10306 10305 10304 10303 10302 10301 10300 10300 10299 10298 10298 10298 10298 10297 10297 10297 10296 10296 10295 10295 10294 10293 10293 10293 10293 10293 10293 10293 10293 10293 10293 10293 10293 10293 10293 10293 10293 10293 10293 10293 10293 10293 10293 10293 10293 10293 10293 10293 10293 10294 10295 10295 10296 10296 10296 10297 10297 10297 10298 10298 10300 10300 10300 10300 10301 10301 10302 10302 10302 10303 10303 10304 10305 10306 10306 10308 10308 10309 10310 10310 10310
10306 10305 10303 10302 10301 10300 10299 10298 10298 10296 10296 10295 10294 10293 10293 10292 10292 10292 10291 10291 10291 10291 10290 10290 10290 10289 10289 10288 10288 10288 10288 10288 10288 10288 10288 10288 10288 10289 10289 10289 10289 10289 10288 10288 10288 10288 10288 10288 10289 10289 10289 10290 10290 10290 10290 10290 10291 10291 10292 10292 10292 10293 10293 10293 10294 10295 10295 10296 10296 10296 10297 10297 10298 10298 10298 10299 10300 10300 10301 10302 10303 10304 10305 10305 10305 10305
10299 10298 10297 10296 10296 10295 10294 10293 10292 10291 10290 10290 10288 10288 10287 10286 10286 10286 10286 10285 10285 10285 10285 10285 10285 10284 10284 10283 10283 10283 10283 10283 10283 10283 10283 10283 10283 10283 10283 10283 10284 10284 10284 10283 10284 10284 10284 10284 10284 10284 10285 10285 10285 10285 10285 10286 10286 10287 10288 10288 10288 10288 10288 10289 10290 10290 10291 10291 10291 10291 10292 10292 10293 10293 10294 10295 10295 10295 10296 10297 10298 10299 10300 10300 10301 10300
10293 10292 10291 10290 10290 10289 10288 10287 10286 10286 10285 10284 10283 10282 10281 10281 10280 10280 10280 10280 10280 10279 10279 10279 10279 10279 10278 10278 10278 10278 10278 10278 10278 10277 10277 10277 10278 10278 10278 10278 10278 10279 10279 10279 10279 10279 10279 10279 10279 10279 10279 10280 10281 10281 10281 10281 10282 10283 10283 10283 10283 10283 10284 10284 10285 10285 10286 10286 10286 10286 10286 10287 10288 10288 10289 10290 10290 10290 10291 10292 10293 10294 10295 10296 10296 10296